EW6390 Weather Reports


time (UTC)temp
F
wind
direction
speed
knots
gust
knots
rain 1hr
in
rain 24hr
in
rain mn
in
humidity
%
barometer
mb
20260504050459 50 247 0.0 0.0 0.00 0.00 0.00 82 1016.3
20260504050454 50 247 0.0 0.0 0.00 0.00 0.00 81 1016.3
20260504045454 50 247 0.0 0.0 0.00 0.00 0.00 81 1016.3
20260504044952 50 247 0.0 0.0 0.00 0.00 0.00 82 1016.2
20260504044452 50 247 0.0 0.0 0.00 0.00 0.00 82 1016.4
20260504043951 50 247 0.0 0.0 0.00 0.00 0.00 82 1016.4
20260504043452 50 247 0.0 0.0 0.00 0.00 0.00 81 1016.4
20260504042952 50 247 0.0 0.0 0.00 0.00 0.00 81 1016.4
20260504042450 50 247 0.0 0.0 0.00 0.00 0.00 80 1016.5
20260504041951 50 247 0.0 0.0 0.00 0.00 0.00 80 1016.6
20260504041451 51 247 0.0 0.0 0.00 0.00 0.00 80 1016.7
20260504040957 51 247 0.0 0.0 0.00 0.00 0.00 78 1016.7
20260504040951 51 247 0.0 0.0 0.00 0.00 0.00 80 1016.8
20260504040450 51 247 0.0 0.0 0.00 0.00 0.00 80 1016.8
20260504040108 51 247 0.0 0.0 0.00 0.00 0.00 77 1016.7
20260504034947 51 247 0.0 0.0 0.00 0.00 0.00 77 1016.8
20260504034446 51 247 0.0 0.0 0.00 0.00 0.00 77 1016.8
20260504033950 51 247 0.0 0.0 0.00 0.00 0.00 76 1016.7
20260504033446 52 247 0.0 0.0 0.00 0.00 0.00 76 1016.8
20260504032947 52 247 0.0 0.0 0.00 0.00 0.00 76 1016.8
20260504032448 52 247 0.0 0.0 0.00 0.00 0.00 76 1016.8
20260504031946 53 247 0.0 0.0 0.00 0.00 0.00 75 1016.7
20260504031452 53 247 0.0 0.0 0.00 0.00 0.00 74 1016.5
20260504031446 53 247 0.0 0.0 0.00 0.00 0.00 74 1016.6
20260504030446 53 247 0.0 0.0 0.00 0.00 0.00 73 1016.5
20260504025950 54 247 0.0 0.0 0.00 0.00 0.00 73 1016.6
20260504025945 54 247 0.0 0.0 0.00 0.00 0.00 74 1016.6
20260504025606 55 247 0.0 0.0 0.00 0.00 0.00 70 1016.5
20260504024947 54 247 0.0 0.0 0.00 0.00 0.00 72 1016.6
20260504024446 55 247 0.0 0.0 0.00 0.00 0.00 72 1016.6
20260504023446 55 247 0.0 0.0 0.00 0.00 0.00 69 1016.5
20260504022950 56 247 0.0 0.0 0.00 0.00 0.00 67 1016.4
20260504022944 56 247 0.0 0.0 0.00 0.00 0.00 69 1016.4
20260504022604 56 247 0.0 0.0 0.00 0.00 0.00 66 1016.3
20260504021443 56 247 0.0 0.0 0.00 0.00 0.00 66 1016.4
20260504020943 57 247 0.0 0.0 0.00 0.00 0.00 63 1016.3
20260504020444 57 247 0.0 0.0 0.00 0.00 0.00 64 1016.3
20260504015941 57 247 0.0 0.0 0.00 0.00 0.00 63 1016.2
20260504015441 57 247 0.0 0.0 0.00 0.00 0.00 63 1016.1
20260504014940 57 247 0.0 0.0 0.00 0.00 0.00 62 1016.1
20260504014442 58 247 0.0 0.0 0.00 0.00 0.00 61 1016.0
20260504013940 58 247 0.0 0.0 0.00 0.00 0.00 62 1015.9
20260504013440 58 247 0.0 0.0 0.00 0.00 0.00 59 1015.9
20260504012944 58 247 0.0 0.0 0.00 0.00 0.00 57 1015.9
20260504012938 58 247 0.0 0.0 0.00 0.00 0.00 59 1015.9
20260504011939 58 247 0.0 0.0 0.00 0.00 0.00 57 1015.9
20260504011440 58 247 0.0 0.0 0.00 0.00 0.00 57 1015.9
20260504010939 59 247 0.0 0.0 0.00 0.00 0.00 59 1015.9
20260504010440 59 247 0.0 0.0 0.00 0.00 0.00 56 1015.8
20260504005940 59 247 0.0 0.0 0.00 0.00 0.00 60 1015.8
20260504005440 60 247 0.0 0.0 0.00 0.00 0.00 51 1015.8
20260504004939 60 247 0.0 0.0 0.00 0.00 0.00 56 1015.8
20260504004438 61 247 0.0 0.0 0.00 0.00 0.00 51 1015.7
20260504003943 62 247 0.0 0.0 0.00 0.00 0.00 54 1015.6
20260504003938 61 247 0.0 0.0 0.00 0.00 0.00 53 1015.6
20260504002939 62 247 0.0 0.0 0.00 0.00 0.00 45 1015.6
20260504002440 63 247 0.0 0.0 0.00 0.00 0.00 47 1015.5
20260504001939 63 247 0.0 0.0 0.00 0.00 0.00 49 1015.4
20260504001438 64 247 0.0 0.0 0.00 0.00 0.00 44 1015.4
20260504000938 64 247 0.0 0.0 0.00 0.00 0.00 41 1015.3
20260504000439 65 247 0.0 0.0 0.00 0.00 0.00 41 1015.4
20260503235939 65 247 0.0 0.0 0.00 0.00 0.00 41 1015.4
20260503235439 65 247 0.0 0.0 0.00 0.00 0.00 42 1015.4
20260503234938 66 247 0.0 0.9 0.00 0.00 0.00 41 1015.4
20260503234440 66 247 0.0 2.6 0.00 0.00 0.00 39 1015.4
20260503233943 66 248 0.0 1.7 0.00 0.00 0.00 38 1015.3
20260503233938 66 239 0.0 2.6 0.00 0.00 0.00 38 1015.3
20260503232940 67 234 0.9 3.5 0.00 0.00 0.00 39 1015.3
20260503232439 67 287 1.7 3.5 0.00 0.00 0.00 37 1015.3
20260503231938 67 249 0.9 3.5 0.00 0.00 0.00 37 1015.4
20260503231438 67 231 0.0 1.7 0.00 0.00 0.00 37 1015.4
20260503230939 67 250 0.0 2.6 0.00 0.00 0.00 36 1015.4
20260503230438 67 240 0.9 3.5 0.00 0.00 0.00 36 1015.5
20260503225939 67 245 0.9 3.5 0.00 0.00 0.00 36 1015.4
20260503225437 67 238 0.0 1.7 0.00 0.00 0.00 37 1015.5
20260503224936 67 235 0.9 3.5 0.00 0.00 0.00 36 1015.5
20260503224436 67 237 0.9 3.5 0.00 0.00 0.00 37 1015.5
20260503223939 67 244 1.7 4.3 0.00 0.00 0.00 36 1015.6
20260503223437 67 226 1.7 4.3 0.00 0.00 0.00 37 1015.6
20260503222936 67 264 0.9 4.3 0.00 0.00 0.00 36 1015.6
20260503222440 67 278 0.9 5.2 0.00 0.00 0.00 37 1015.6
20260503222435 67 246 0.9 5.2 0.00 0.00 0.00 37 1015.6
20260503221439 68 234 0.9 4.3 0.00 0.00 0.00 38 1015.6
20260503221434 67 226 0.9 4.3 0.00 0.00 0.00 36 1015.5
20260503221056 67 125 0.0 1.7 0.00 0.00 0.00 38 1015.6
20260503215934 68 238 0.0 2.6 0.00 0.00 0.00 37 1015.7
20260503215434 68 238 0.9 3.5 0.00 0.00 0.00 38 1015.7
20260503214935 68 144 0.9 4.3 0.00 0.00 0.00 36 1015.7
20260503214432 68 250 0.9 5.2 0.00 0.00 0.00 37 1015.7
20260503213938 68 265 1.7 8.7 0.00 0.00 0.00 37 1015.8
20260503213932 68 196 0.9 5.2 0.00 0.00 0.00 34 1015.7
20260503212930 68 278 1.7 8.7 0.00 0.00 0.00 34 1015.8
20260503212430 68 275 2.6 6.1 0.00 0.00 0.00 35 1015.9
20260503211928 68 135 1.7 5.2 0.00 0.00 0.00 33 1015.8
20260503211428 68 249 1.7 7.8 0.00 0.00 0.00 35 1015.8
20260503210927 68 252 1.7 7.8 0.00 0.00 0.00 35 1015.9
20260503210424 68 288 0.9 5.2 0.00 0.00 0.00 35 1015.9
20260503205925 68 269 0.0 1.7 0.00 0.00 0.00 37 1015.9
20260503205429 68 226 1.7 7.8 0.00 0.00 0.00 34 1016.0
20260503205423 68 231 0.9 5.2 0.00 0.00 0.00 36 1015.9
20260503204422 68 231 1.7 7.8 0.00 0.00 0.00 36 1016.1
20260503203923 68 276 1.7 7.8 0.00 0.00 0.00 36 1016.1
20260503203423 68 233 1.7 8.7 0.00 0.00 0.00 34 1016.2
20260503202922 69 259 1.7 8.7 0.00 0.00 0.00 34 1016.3
20260503202422 69 231 1.7 6.1 0.00 0.00 0.00 36 1016.4
20260503201927 69 268 2.6 7.0 0.00 0.00 0.00 34 1016.7
20260503201923 69 252 0.9 6.1 0.00 0.00 0.00 34 1016.5
20260503201420 69 210 1.7 7.0 0.00 0.00 0.00 34 1016.6
20260503200420 69 252 1.7 7.0 0.00 0.00 0.00 34 1016.8
20260503195922 69 197 1.7 5.2 0.00 0.00 0.00 35 1016.9
20260503195425 69 226 2.6 6.1 0.00 0.00 0.00 34 1017.1
20260503195419 69 226 2.6 5.2 0.00 0.00 0.00 34 1017.0
20260503194421 69 241 2.6 7.0 0.00 0.00 0.00 33 1017.1
20260503193920 69 291 2.6 7.0 0.00 0.00 0.00 36 1017.1
20260503193420 69 227 1.7 4.3 0.00 0.00 0.00 34 1017.2
20260503192921 69 272 1.7 6.1 0.00 0.00 0.00 34 1017.3
20260503192425 69 240 0.9 2.6 0.00 0.00 0.00 36 1017.4
20260503192419 69 231 1.7 6.1 0.00 0.00 0.00 33 1017.4
20260503191418 69 274 0.9 2.6 0.00 0.00 0.00 35 1017.6
20260503190918 69 273 1.7 7.0 0.00 0.00 0.00 33 1017.7
20260503190417 69 217 1.7 7.0 0.00 0.00 0.00 37 1017.6
20260503185918 70 264 1.7 7.0 0.00 0.00 0.00 35 1017.7
20260503185425 69 229 1.7 10.4 0.00 0.00 0.00 34 1017.9
20260503185419 69 26 1.7 9.6 0.00 0.00 0.00 37 1017.8
20260503184918 68 238 2.6 10.4 0.00 0.00 0.00 35 1017.9
20260503183919 69 280 0.9 2.6 0.00 0.00 0.00 34 1017.9
20260503183416 69 272 0.9 3.5 0.00 0.00 0.00 34 1018.0
20260503182917 69 305 1.7 6.1 0.00 0.00 0.00 35 1018.0
20260503182415 68 262 2.6 9.6 0.00 0.00 0.00 34 1018.0
20260503181915 68 254 2.6 9.6 0.00 0.00 0.00 32 1018.1
20260503181414 69 243 1.7 7.8 0.00 0.00 0.00 32 1018.1
20260503180914 70 249 0.9 6.1 0.00 0.00 0.00 33 1018.1
20260503180414 70 212 0.9 7.0 0.00 0.00 0.00 37 1018.1
20260503175919 68 121 1.7 5.2 0.00 0.00 0.00 34 1018.3
20260503175914 69 237 1.7 7.0 0.00 0.00 0.00 37 1018.3
20260503174915 68 224 1.7 5.2 0.00 0.00 0.00 34 1018.3
20260503174411 69 276 1.7 2.6 0.00 0.00 0.00 36 1018.3
20260503173913 69 255 0.9 2.6 0.00 0.00 0.00 32 1018.4
20260503173412 68 266 1.7 8.7 0.00 0.00 0.00 33 1018.5
20260503172912 68 115 1.7 8.7 0.00 0.00 0.00 36 1018.7
20260503172412 69 258 0.9 4.3 0.00 0.00 0.00 36 1018.8
20260503171917 68 113 0.9 5.2 0.00 0.00 0.00 37 1019.0
20260503171912 69 219 0.9 2.6 0.00 0.00 0.00 34 1018.9
20260503170912 67 163 1.7 5.2 0.00 0.00 0.00 35 1019.0
20260503170412 67 270 1.7 4.3 0.00 0.00 0.00 39 1019.1
20260503150900 64 188 0.0 2.6 0.00 0.00 0.00 42 1020.1
20260503150401 64 221 0.0 2.6 0.00 0.00 0.00 43 1020.1
20260503131400 58 270 0.0 0.9 0.00 0.00 0.00 52 1019.8
20260503130400 58 134 0.0 0.0 0.00 0.00 0.00 54 1019.9
20260503110352 40 219 0.0 0.0 0.00 0.00 0.00 88 1018.9
20260503090353 43 219 0.0 0.0 0.00 0.01 0.00 82 1017.2
20260503090347 42 219 0.0 0.0 0.00 0.01 0.00 83 1017.3
20260503081345 45 219 0.0 0.0 0.00 0.01 0.00 75 1016.8
20260503080850 46 219 0.0 0.0 0.00 0.01 0.00 73 1016.8
20260503080845 46 219 0.0 0.0 0.00 0.01 0.00 74 1016.9
20260503080506 46 219 0.0 0.0 0.00 0.01 0.00 70 1016.9
20260503071844 49 219 0.0 0.0 0.00 0.01 0.00 65 1016.5
20260503071343 49 219 0.0 0.0 0.00 0.01 0.00 65 1016.3
20260503070844 49 219 0.0 0.0 0.00 0.01 0.00 65 1016.4
20260503070342 49 219 0.0 0.0 0.00 0.01 0.00 65 1016.2
20260503060342 49 240 0.0 0.0 0.00 0.01 0.00 67 1016.0
20260503054840 47 240 0.0 0.0 0.00 0.01 0.00 70 1016.1
20260503054340 46 240 0.0 0.0 0.00 0.01 0.00 73 1016.1
20260503053840 46 240 0.0 0.0 0.00 0.01 0.00 76 1016.1
20260503053340 46 240 0.0 0.0 0.00 0.01 0.00 79 1016.1
20260503052838 46 240 0.0 0.0 0.00 0.01 0.00 78 1016.1
20260503052340 46 240 0.0 0.0 0.00 0.01 0.00 78 1016.1